Tracking 31027 objects as of 19-Jul-2025
HD Live streaming from Space Station
objects crossing your sky now

STARLINK-30109

Track STARLINK-30109 now!
10-day predictions
STARLINK-30109 is classified as:


NORAD ID: 56298
Int'l Code: 2023-056N
Perigee: 565.6 km
Apogee: 566.8 km
Inclination: 43.0 °
Period: 95.8 minutes
Semi major axis: 6937 km
RCS: Unknown
Launch date: April 19, 2023
Source: United States (US)
Launch site: AIR FORCE EASTERN TEST RANGE (AFETR)
Your satellite tracking list
STARLINK-3957
Track 1 satellite(s)




NASA's NSSDC Master Catalog

Two Line Element Set (TLE):
1 56298U 23056N   25199.83548218 -.00000309  00000-0 -77934-5 0  9990
2 56298  43.0039  41.1204 0000845 257.8459 102.2289 15.02532292124901
Source of the keplerian elements: AFSPC